SCP
0 0 0 0 0 0 0 0 0 0 0 0 0 0 0 0 0 0 0 0 0 0 0 0 0 0 0 0 0 0 0 0 0 0 0 0 0 0 0 0 0 0 0 0 0 0 0 0 0 0 0 0 0 0
0 0 0 0 0 0 0 0 0 0 0 0 0 0 0 0 0 0 0 0 0 0 0 0 0 0 0 0 0 0 0 0 0 0 0 0 0 0 0 0 0 0 0 0 0 0 0 0 0 0 0 0 0 0
0 0 0 0 0 0 0 0 0 0 0 0 0 0 0 0 0 0 0 0 0 0 0 0 0 0 0 0 0 0 0 0 0 0 0 0 0 0 0 0 0 0 0 0 0 0 0 0 0 0 -0 -0 -0 -0
0 0 0 0 0 0 0 0 0 0 0 0 0 0 0 0 0 -0 0 0 0 0 0 0 0 0 0 0 0 0 0 0 0 0 0 0 0 0 0 0 0 0 0 0 0 0 0 0 0 0 0 0 0 0
0 0 0 0 0 0 0 0 0 0 0 0 0 0 0 0 0 0 0 0 0 0 0 0 0 0 0 0 0 0 0 0 0 0 0 0 0 0 0 0 0 0 0 0 0 0 0 0 0 0 0 0 0 0
0 0 0 0 0 0 0 0 0 0 0 0 0 0 0 0 0 -0 -0 0 0 0 0 0 0 0 0 0 0 0 0 0 0 0 0 0 0 0 0 0 0 0 0 0 0 0 0 0 0 0 0 0 0 0
-0 0 0 0 0 0 0 0 0 0 0 0 0 0 0 0 0 0 0 0 0 0 0 0 0 0 0 0 0 0 0 0 0 0 0 0 0 0 0 0 0 0 0 0 0 0 0 0 0 0 -0 0 0 0
0 0 -0 0 -0 -0 -0 -0 0 0 0 0 0 0 0 0 0 0 0 0 0 0 0 0 0 0 0 0 0 0 0 0 0 0 0 0 0 0 0 0 0 0 0 0 0 0 0 0 0 0 0 0 0 0
0 0 0 -0 -0 0 -0 -0 -0 -0 -0 -0 0 0 0 0 0 0 0 0 0 0 0 0 0 0 0 0 0 0 0 0 0 0 0 0 0 0 0 0 0 0 0 0 0 0 0 0 0 0 0 0 0 0
-0 -0 -0 -0 -0 -0 -0 -0 0 0 0 0 0 0 0 0 0 0 0 0 0 0 0 0 0 0 0 0 0 0 0 0 0 0 0 0 0 0 0 0 0 0 0 0 0 0 0 0 0 0 0 0 0 0
-0 -0 -0 -0 -0 -0 -0 -0 -0 0 -0 0 0 0 0 0 0 0 0 0 0 0 0 0 0 0 0 0 0 0 0 0 0 0 0 0 0 0 0 0 0 0 0 0 0 0 0 0 0 0 0 0 0 0
0 0 0 -0 0 -0 -0 0 -0 0 0 0 0 0 0 0 0 0 0 0 0 0 0 0 0 0 0 0 0 0 0 0 0 0 0 0 0 0 0 0 0 0 0 0 0 0 0 0 0 0 0 0 0 0
-0 -0 -0 -0 -0 -0 0 -0 0 0 0 0 0 0 0 0 0 0 0 0 0 0 0 0 0 0 0 0 0 0 0 0 0 0 0 0 0 0 0 0 0 0 0 0 0 0 0 0 0 0 0 0 0 0
-0 -0 -0 -0 -0 -0 -0 -0 0 0 0 0 0 0 0 0 0 0 0 0 0 0 0 0 0 0 0 0 0 0 0 0 0 0 0 0 0 0 0 0 0 0 0 0 0 0 0 0 0 0 0 0 0 0
0 -0 -0 -0 -0 -0 0 0 0 0 0 0 0 0 0 0 0 0 0 0 0 0 0 0 0 0 0 0 0 0 0 0 0 0 0 0 0 0 0 0 0 0 0 0 0 0 0 0 0 0 0 0 0 0
0 0 0 -0 0 0 -0 0 0 0 0 0 0 0 0 0 0 0 0 0 0 0 0 0 0 0 0 0 0 0 0 0 0 0 0 0 0 0 0 0 0 0 0 0 0 0 0 0 0 0 0 0 0 0
0 -0 -0 0 0 0 0 0 0 0 0 0 0 0 0 0 0 0 0 0 0 0 0 0 0 0 0 0 0 0 0 0 0 0 0 0 0 0 0 0 0 0 0 0 0 0 0 0 0 0 0 0 0 0
-0 0 0 0 0 0 0 0 0 0 0 0 0 0 0 0 0 0 0 0 0 0 0 0 0 0 0 0 0 0 0 0 0 0 0 0 0 0 0 0 0 0 0 0 0 0 0 0 0 0 0 0 0 0
0 0 0 0 0 0 0 0 0 0 0 0 0 0 0 0 0 0 0 0 0 0 0 0 0 0 0 0 0 0 0 0 0 0 0 0 0 0 0 0 0 0 0 0 0 0 0 0 0 0 0 0 0 0
0 0 0 0 0 0 0 0 0 0 0 0 0 0 0 0 0 0 0 0 0 0 0 0 0 0 0 0 0 0 0 0 0 0 0 0 0 0 0 0 0 0 0 0 0 0 0 0 0 0 0 0 0 0
0 0 0 0 0 0 0 0 0 0 0 0 0 0 0 0 0 0 0 0 0 0 0 0 0 0 0 0 0 0 0 0 0 0 0 0 0 0 0 0 0 0 0 0 0 0 0 0 0 0 0 0 0 0
0 0 0 0 0 0 0 0 0 0 0 0 0 0 0 0 0 0 0 0 0 0 0 0 0 0 0 0 0 0 0 0 0 0 0 0 0 0 0 0 0 0 0 0 0 0 0 0 0 0 0 0 0 0
0 0 0 0 0 0 0 0 0 0 0 0 0 0 0 0 0 0 0 0 0 0 0 0 0 0 0 0 0 0 0 0 0 0 0 0 0 0 0 0 0 0 0 0 0 0 0 0 0 0 0 0 0 0
0 0 0 0 0 0 0 0 0 0 0 0 0 0 0 0 0 0 0 0 0 0 0 0 0 0 0 0 0 0 0 0 0 0 0 0 0 0 0 0 0 0 0 0 0 0 0 0 0 0 0 0 0 0
0 0 0 0 0 0 0 0 0 0 0 0 0 0 0 0 0 0 0 0 0 0 0 0 0 0 0 0 0 0 0 0 0 0 0 0 0 0 0 0 0 0 0 0 0 0 0 0 0 0 0 0 0 0
0 0 0 0 0 0 0 0 0 0 0 0 0 0 0 0 0 0 0 0 0 0 0 0 0 0 0 0 0 0 0 0 0 0 0 0 0 0 0 0 0 0 0 0 0 0 0 0 0 0 0 0 0 0
0 0 0 0 0 0 0 0 0 0 0 0 0 0 0 0 0 0 0 0 0 0 0 0 0 0 0 0 0 0 0 0 0 0 0 0 0 0 0 0 0 0 0 0 0 0 0 0 0 0 0 0 0 0
0 0 0 0 0 0 0 0 0 0 0 0 0 0 0 0 0 0 0 0 0 0 0 0 0 0 0 0 0 0 0 0 0 0 0 0 0 0 0 0 0 0 0 0 0 0 0 0 0 0 0 0 0 0
0 0 0 0 0 0 0 0 0 0 0 0 0 0 0 0 0 0 0 0 0 0 0 0 0 0 0 0 0 0 0 0 0 0 0 0 0 0 0 0 0 0 0 0 0 0 0 0 0 0 0 0 0 0
0 0 0 0 0 0 0 0 0 0 0 0 0 0 0 0 0 -0 0 0 0 0 0 0 0 0 0 0 0 0 0 0 0 0 0 0 0 0 0 0 0 0 0 0 0 0 0 0 0 0 0 0 0 0
0 0 0 0 0 0 0 0 0 0 0 0 0 -0 0 0 0 0 -0 -0 -0 -0 -0 -0 -0 0 0 0 0 0 0 0 0 0 0 0 0 0 0 0 0 0 0 0 0 0 0 0 0 0 0 0 0 0
0 0 0 0 0 0 0 0 0 0 0 0 0 0 0 0 0 0 0 -0 0 0 -0 -0 0 0 0 0 0 0 0 0 -0 -0 0 0 0 0 0 0 0 0 0 0 0 0 0 0 0 0 0 0 0 0
0 0 0 0 0 0 0 0 0 0 0 0 0 0 0 0 -0 0 0 0 0 -0 -0 -0 0 0 0 0 -0 -0 -0 0 0 0 0 0 0 0 0 0 0 0 0 0 0 0 0 0 0 0 0 0 0 0
Wind_Speed_500mb
59 55 54 54 54 59 57 61 62 60 61 63 65 62 65 81 69 87 86 94 87 38 36 54 48 37 20 37 7 16 11 4 5 10 8 8 7 11 7 11 12 15 14 10 14 16 23 19 8 13 4 19 31 39
67 65 62 60 60 59 60 64 64 63 62 64 64 68 68 59 85 77 83 78 92 57 24 60 49 60 54 38 28 41 12 13 21 5 4 4 5 4 12 6 11 13 13 8 15 11 5 12 5 29 16 29 51 49
63 64 66 64 62 60 63 61 65 60 63 63 63 69 69 75 69 63 82 62 86 67 38 39 57 66 63 57 45 30 21 17 12 9 5 2 6 4 7 13 6 8 13 12 8 23 41 53 53 48 51 50 49 34
66 63 61 58 57 59 59 61 59 60 64 67 67 70 71 71 67 80 65 87 90 49 17 22 69 68 71 72 62 55 30 37 22 14 8 4 4 9 4 3 4 9 8 6 13 27 33 40 44 46 46 37 35 41
69 64 59 59 59 59 59 59 61 59 61 65 69 71 77 78 71 73 90 103 91 54 10 19 54 65 71 74 70 60 51 31 19 10 4 6 7 1 8 3 18 23 21 13 22 35 31 41 65 62 46 52 58 61
68 65 62 61 59 61 62 66 66 66 65 67 72 80 80 83 73 64 64 74 89 90 14 8 21 56 56 69 76 68 60 39 29 16 7 11 21 10 5 8 36 72 61 61 59 82 72 65 65 62 57 53 60 61
59 63 64 62 62 65 67 68 71 70 71 71 72 75 81 85 83 74 22 36 107 96 21 7 8 23 68 54 40 39 41 32 24 14 13 10 12 17 5 19 62 52 54 66 67 64 52 58 51 48 40 43 45 53
34 49 57 60 63 65 68 70 76 80 80 77 72 73 74 79 76 79 60 38 107 79 21 10 6 12 53 23 17 28 27 26 26 13 8 12 11 21 9 36 62 55 53 56 55 53 29 42 48 51 57 56 52 55
33 39 47 53 58 65 72 69 69 72 74 74 68 58 69 81 57 57 79 67 91 37 17 9 15 9 34 19 17 13 17 5 18 7 8 13 5 9 16 27 20 18 12 28 37 35 37 37 43 48 45 39 40 47
42 46 48 55 56 53 53 57 62 72 65 61 58 53 37 43 57 51 75 56 31 22 18 6 21 10 40 17 9 16 15 6 7 12 19 7 10 58 32 24 19 23 27 33 37 43 53 60 51 50 47 42 40 43
48 47 53 50 43 42 45 52 39 43 78 69 42 21 19 66 67 25 14 12 11 10 18 16 22 19 28 8 8 13 7 6 6 9 14 6 7 7 23 29 29 30 32 32 36 38 40 46 51 56 55 45 45 46
36 29 18 6 14 17 13 9 39 52 63 51 23 41 33 18 9 8 7 8 7 9 9 16 24 31 19 20 7 9 6 5 8 8 7 5 5 10 7 8 12 17 23 25 29 34 34 36 41 45 46 47 44 42
51 49 50 35 16 18 24 41 44 37 59 50 17 11 5 2 8 8 9 6 8 8 18 37 14 17 12 11 9 5 9 8 12 5 9 8 11 5 7 10 12 18 22 26 26 29 32 34 36 40 41 39 40 39
58 48 51 47 43 51 30 23 32 59 17 15 10 7 7 5 5 6 6 7 7 29 51 55 17 8 12 6 6 10 6 8 4 5 12 6 12 0 6 12 16 17 19 20 21 23 27 29 29 30 32 33 31 28
44 47 49 47 35 30 37 29 23 23 14 12 10 7 9 8 10 9 11 16 23 45 61 30 17 12 5 8 4 9 6 7 12 10 6 14 7 0 8 11 15 16 18 19 21 22 22 22 23 23 23 22 21 16
37 20 47 39 35 29 24 16 31 26 13 12 22 4 10 5 4 13 19 10 20 39 46 19 7 7 4 9 7 11 15 12 8 5 16 10 2 5 9 9 12 14 15 16 16 16 16 15 14 13 12 9 7 4
34 25 37 25 28 30 14 23 16 19 14 13 8 21 13 13 13 9 13 13 15 14 6 7 9 11 6 7 3 7 11 7 20 20 10 5 2 4 5 5 6 7 8 9 10 9 9 7 6 5 2 5 6 10
22 27 25 20 17 16 37 24 16 16 13 18 7 12 14 17 9 13 11 13 13 9 7 6 11 6 10 11 6 5 10 17 16 14 9 3 1 2 1 4 5 5 5 5 4 3 6 7 8 10 13 14 13 16
21 22 16 14 18 13 12 16 16 10 14 9 10 14 14 13 25 19 13 14 19 16 11 4 9 5 5 6 5 12 23 15 13 12 7 6 4 4 3 4 6 6 5 5 5 4 4 5 8 11 12 14 16 20
10 10 11 10 12 10 12 15 13 16 5 7 12 13 10 12 15 21 22 17 14 8 12 8 5 4 7 10 14 21 19 17 17 16 6 4 5 5 5 4 6 7 7 7 8 11 11 13 13 14 15 16 17 19
5 3 3 6 14 23 16 12 16 12 10 11 10 8 8 13 15 20 20 19 12 12 5 10 13 14 15 17 18 17 18 18 18 8 8 6 5 4 6 7 7 7 8 9 9 10 11 12 14 14 15 15 15 14
2 4 8 15 14 13 18 19 12 9 9 9 7 7 8 5 8 13 15 19 11 9 8 8 12 14 16 16 16 14 15 17 13 9 8 10 11 11 10 11 10 10 11 12 12 12 12 14 13 12 11 10 8 5
10 8 13 15 11 14 7 11 8 10 6 3 4 6 6 6 13 13 11 10 7 8 6 8 11 13 13 14 13 13 13 12 10 9 11 11 11 12 12 13 13 12 12 12 12 11 11 10 9 7 5 4 3 4
12 13 19 17 22 6 7 13 9 8 7 7 6 6 7 8 12 8 4 3 3 3 5 7 10 11 10 10 10 11 12 12 10 12 13 13 13 14 14 14 14 12 12 12 11 10 9 7 6 6 7 9 10 12
10 23 17 14 19 11 12 10 10 9 7 6 6 6 6 9 5 4 1 1 1 2 3 5 8 7 7 7 7 10 12 14 15 13 14 14 14 16 16 16 15 14 13 12 11 9 8 8 9 11 12 15 17 19
17 20 12 10 10 8 5 6 7 3 4 6 2 6 6 4 4 6 4 3 3 2 4 6 9 9 9 7 8 10 13 14 15 14 15 16 17 16 14 14 13 12 11 10 10 11 11 12 14 16 19 22 25 30
11 9 13 16 5 5 9 9 5 7 6 3 4 6 4 3 6 5 3 5 5 6 7 8 9 9 9 8 10 11 13 14 13 12 14 15 15 14 14 14 13 11 11 11 13 13 15 17 20 23 26 27 30 36
10 12 7 15 12 12 7 4 5 3 2 3 2 1 9 9 7 3 8 7 9 10 10 10 10 9 10 11 12 13 14 15 14 13 14 14 14 14 14 13 13 13 14 14 16 19 21 24 28 30 33 34 31 33
11 8 5 9 7 9 8 4 4 1 2 1 3 3 5 6 7 6 9 11 12 12 13 13 14 14 14 14 15 15 14 14 14 15 13 10 11 13 14 15 17 18 18 19 23 25 27 29 31 34 35 37 36 35
9 9 5 4 6 4 3 5 4 3 4 5 6 6 8 8 7 7 11 13 13 12 13 14 14 14 15 15 15 14 13 13 13 14 13 13 14 14 15 15 18 21 22 23 25 27 31 33 35 39 43 44 45 48
4 3 5 5 3 2 6 7 4 4 4 4 6 8 9 9 6 7 11 13 15 15 15 15 15 15 14 13 12 12 12 14 15 17 18 18 20 20 21 22 23 25 26 28 29 31 34 36 39 42 44 47 47 51
5 6 5 4 2 1 6 7 4 4 4 4 4 6 7 7 6 5 7 16 17 17 15 16 15 11 12 14 15 15 16 17 16 15 15 17 19 22 24 25 27 29 31 32 34 36 39 43 46 49 53 55 57 59
4 5 5 4 2 1 5 11 3 6 6 5 5 5 5 6 9 5 5 12 14 14 15 15 16 17 16 16 16 16 17 18 19 19 20 22 22 25 27 28 30 33 35 37 39 42 45 49 54 57 61 65 68 69
Wind_Direction_500mb
268 262 262 260 261 261 260 258 254 251 246 242 241 243 237 231 219 224 224 220 212 225 225 210 210 216 193 188 163 149 111 159 165 188 177 198 179 208 184 219 169 172 178 193 216 233 252 196 131 175 227 304 303 300
263 263 261 262 260 261 260 256 249 250 248 243 242 241 240 244 226 223 225 221 212 214 225 219 217 221 212 202 190 166 176 149 178 178 194 153 237 182 173 242 193 244 211 188 176 208 206 162 317 308 316 303 306 293
264 261 259 257 258 259 260 256 248 249 248 246 242 240 239 237 244 224 217 218 203 212 220 200 213 216 217 219 215 200 219 206 189 213 102 68 241 93 188 228 254 252 220 224 253 259 265 278 288 295 307 295 290 279
260 260 259 255 255 258 257 249 249 249 247 244 243 244 238 238 239 242 235 206 197 192 208 217 216 213 215 212 210 213 215 206 210 203 165 172 176 214 258 243 161 220 1 254 267 271 278 274 282 292 302 298 275 288
253 256 252 251 254 257 253 248 247 245 245 243 245 243 239 237 239 249 240 221 218 187 162 156 198 210 207 206 203 205 200 191 170 149 148 212 206 256 245 344 262 249 249 257 265 275 288 287 287 288 289 286 285 289
248 247 249 250 253 257 254 249 249 251 245 249 249 243 238 231 229 244 253 209 201 205 170 168 167 189 191 203 206 205 211 214 204 198 194 218 215 208 212 228 252 257 258 257 265 268 269 271 279 280 285 287 291 285
248 241 248 251 253 255 255 251 251 251 251 252 251 240 232 227 220 216 243 194 201 198 180 129 131 159 188 189 187 189 193 198 197 190 210 224 206 205 186 251 261 270 271 275 275 284 272 267 274 283 290 296 289 285
248 243 248 252 255 256 256 253 252 250 249 247 243 230 226 218 221 229 232 191 186 181 177 144 103 139 163 157 152 175 170 175 189 196 211 195 231 206 235 246 263 275 272 266 264 262 270 271 271 281 286 288 285 284
269 258 253 255 258 259 262 259 252 247 239 231 225 219 212 208 205 215 215 163 175 175 158 133 152 152 155 144 123 128 152 151 176 198 196 162 221 215 226 259 253 281 310 291 283 298 303 299 292 291 293 295 292 292
276 267 263 262 264 264 266 259 249 235 218 213 196 204 200 194 202 200 156 164 170 178 151 135 126 146 165 142 125 132 161 183 174 214 170 184 240 240 246 259 270 267 267 277 290 284 290 289 292 290 294 298 297 297
280 262 257 266 268 270 268 270 247 229 188 187 201 170 171 174 160 182 144 160 118 140 172 140 145 134 161 134 135 149 147 163 158 245 164 228 255 171 226 241 256 269 277 280 281 283 286 285 291 296 296 294 291 289
53 62 67 59 286 289 292 170 163 152 167 177 153 140 147 125 130 143 114 112 129 135 134 135 130 119 128 140 113 154 149 109 205 142 122 250 222 166 199 246 274 283 284 282 282 284 283 284 287 288 290 290 290 285
46 47 44 47 38 107 46 96 134 150 149 134 154 99 164 46 117 136 117 102 121 156 157 135 131 122 116 103 108 148 146 192 118 111 206 219 132 176 309 308 301 303 300 297 295 291 292 291 289 290 291 289 288 286
45 51 50 45 47 33 81 113 100 143 118 53 39 76 50 85 62 84 113 120 117 138 139 138 115 112 125 131 138 125 190 93 142 180 223 192 172 339 334 335 332 327 324 321 314 307 302 299 296 294 294 294 293 290
13 31 40 46 56 50 40 28 45 101 57 61 38 45 60 119 37 62 52 107 114 139 133 114 80 106 109 120 137 105 112 210 191 216 194 154 151 56 308 313 319 322 326 323 319 317 311 307 304 301 301 300 298 293
358 341 29 28 35 42 36 52 63 60 69 53 38 83 340 81 61 49 48 75 107 122 124 101 109 112 140 129 128 189 139 202 223 150 136 159 192 296 302 326 335 331 330 327 324 322 319 315 309 308 312 308 292 257
354 13 2 23 31 29 34 60 53 52 48 43 43 38 19 52 44 26 43 33 84 79 93 100 88 189 96 87 152 165 192 181 142 136 161 168 197 271 291 333 2 353 346 339 331 331 340 350 348 341 359 72 120 139
353 351 352 355 12 35 52 44 68 67 66 31 51 10 43 57 62 49 61 67 56 48 13 138 116 97 146 148 235 167 116 128 135 145 148 131 192 250 12 39 43 31 28 29 13 44 87 85 88 83 95 103 115 121
349 356 358 6 15 25 56 44 43 85 53 59 53 38 66 70 64 69 81 82 86 91 107 65 83 119 133 48 84 103 134 134 149 160 134 116 144 162 128 90 74 70 77 88 96 125 138 124 134 121 116 123 126 121
321 344 20 3 8 51 71 45 55 74 64 63 45 25 46 48 43 46 49 63 63 35 45 44 84 93 93 125 126 143 147 142 139 129 129 140 158 155 140 125 123 118 118 120 131 132 127 124 126 123 127 130 129 128
305 307 81 79 48 57 74 54 63 74 91 74 74 34 48 44 36 27 19 21 50 32 66 64 96 104 124 131 138 145 146 151 146 157 176 195 181 183 155 147 148 150 151 149 154 148 143 135 133 132 137 140 136 134
101 140 96 66 68 65 68 49 78 88 84 92 69 60 52 45 31 20 10 39 59 41 70 113 129 133 141 146 148 150 153 161 171 186 213 202 193 186 183 180 173 172 170 167 162 162 159 155 149 144 142 139 136 133
112 94 57 47 80 52 35 53 72 39 74 23 52 52 27 37 11 22 61 47 57 55 100 140 145 145 150 150 154 157 163 178 191 204 197 197 195 192 189 188 185 183 182 178 174 170 166 162 164 169 172 199 245 276
86 54 33 37 36 53 36 35 48 54 58 36 49 48 8 1 12 45 96 96 63 103 158 161 148 140 149 160 171 174 188 200 201 197 194 194 194 191 182 181 183 182 181 178 175 175 177 189 206 234 258 273 288 302
86 13 19 12 22 35 37 18 2 44 57 0 64 20 340 356 53 42 221 227 236 203 164 150 157 159 169 174 183 189 188 196 194 192 193 189 185 187 181 180 180 180 181 190 195 204 221 243 263 275 286 295 299 300
68 16 43 8 10 59 351 61 32 42 38 44 9 325 350 70 69 249 231 224 227 190 172 181 187 191 193 193 191 183 182 186 190 183 185 186 182 185 187 188 190 194 202 215 234 248 263 276 287 294 295 299 300 299
62 355 33 34 45 80 62 56 49 67 62 76 314 0 54 89 258 252 247 216 205 186 181 179 180 189 180 180 178 177 179 182 184 181 180 184 192 197 202 209 214 222 234 247 262 273 283 289 292 294 295 297 301 302
74 38 73 4 45 40 110 55 62 99 220 352 336 125 165 192 239 241 220 202 195 186 181 180 178 177 166 161 165 170 174 175 177 179 181 193 203 210 220 233 245 256 264 270 277 282 288 292 294 296 298 300 300 298
51 28 37 23 46 48 48 120 214 240 264 224 137 265 263 256 269 262 216 197 191 187 181 175 171 167 166 168 171 175 179 187 190 191 199 215 228 240 247 254 262 268 278 279 282 287 291 293 294 298 300 300 300 301
27 23 76 58 76 350 338 346 343 306 253 253 269 282 280 288 307 231 208 200 195 189 187 184 183 185 187 188 190 196 200 208 217 228 239 250 262 265 267 266 270 276 280 284 287 289 292 296 298 297 300 304 308 307
21 37 79 59 110 49 346 350 350 328 291 284 279 266 284 304 292 240 217 203 200 201 201 201 200 202 209 216 223 228 233 241 243 247 252 259 266 271 273 275 278 283 286 287 290 292 294 294 297 300 301 302 302 301
49 50 100 82 295 309 334 339 301 298 290 284 286 286 294 295 280 247 225 213 212 210 207 212 213 214 227 235 243 247 251 254 258 262 267 270 272 273 276 279 281 284 287 291 294 297 300 303 304 303 302 301 302 302
74 60 66 96 72 343 335 351 349 309 255 263 257 273 269 270 255 257 244 215 208 208 217 222 225 240 250 252 254 256 258 261 266 270 272 273 275 275 278 281 284 288 292 296 298 300 300 300 301 302 303 303 303 303
Wind_Speed_850mb
59 55 54 54 54 59 57 61 62 60 61 63 65 62 65 81 69 87 86 94 87 38 36 54 48 37 20 37 7 16 11 4 5 10 8 8 7 11 7 11 12 15 14 10 14 16 23 19 8 13 4 19 31 39
67 65 62 60 60 59 60 64 64 63 62 64 64 68 68 59 85 77 83 78 92 57 24 60 49 60 54 38 28 41 12 13 21 5 4 4 5 4 12 6 11 13 13 8 15 11 5 12 5 29 16 29 51 49
63 64 66 64 62 60 63 61 65 60 63 63 63 69 69 75 69 63 82 62 86 67 38 39 57 66 63 57 45 30 21 17 12 9 5 2 6 4 7 13 6 8 13 12 8 23 41 53 53 48 51 50 49 34
66 63 61 58 57 59 59 61 59 60 64 67 67 70 71 71 67 80 65 87 90 49 17 22 69 68 71 72 62 55 30 37 22 14 8 4 4 9 4 3 4 9 8 6 13 27 33 40 44 46 46 37 35 41
69 64 59 59 59 59 59 59 61 59 61 65 69 71 77 78 71 73 90 103 91 54 10 19 54 65 71 74 70 60 51 31 19 10 4 6 7 1 8 3 18 23 21 13 22 35 31 41 65 62 46 52 58 61
68 65 62 61 59 61 62 66 66 66 65 67 72 80 80 83 73 64 64 74 89 90 14 8 21 56 56 69 76 68 60 39 29 16 7 11 21 10 5 8 36 72 61 61 59 82 72 65 65 62 57 53 60 61
59 63 64 62 62 65 67 68 71 70 71 71 72 75 81 85 83 74 22 36 107 96 21 7 8 23 68 54 40 39 41 32 24 14 13 10 12 17 5 19 62 52 54 66 67 64 52 58 51 48 40 43 45 53
34 49 57 60 63 65 68 70 76 80 80 77 72 73 74 79 76 79 60 38 107 79 21 10 6 12 53 23 17 28 27 26 26 13 8 12 11 21 9 36 62 55 53 56 55 53 29 42 48 51 57 56 52 55
33 39 47 53 58 65 72 69 69 72 74 74 68 58 69 81 57 57 79 67 91 37 17 9 15 9 34 19 17 13 17 5 18 7 8 13 5 9 16 27 20 18 12 28 37 35 37 37 43 48 45 39 40 47
42 46 48 55 56 53 53 57 62 72 65 61 58 53 37 43 57 51 75 56 31 22 18 6 21 10 40 17 9 16 15 6 7 12 19 7 10 58 32 24 19 23 27 33 37 43 53 60 51 50 47 42 40 43
48 47 53 50 43 42 45 52 39 43 78 69 42 21 19 66 67 25 14 12 11 10 18 16 22 19 28 8 8 13 7 6 6 9 14 6 7 7 23 29 29 30 32 32 36 38 40 46 51 56 55 45 45 46
36 29 18 6 14 17 13 9 39 52 63 51 23 41 33 18 9 8 7 8 7 9 9 16 24 31 19 20 7 9 6 5 8 8 7 5 5 10 7 8 12 17 23 25 29 34 34 36 41 45 46 47 44 42
51 49 50 35 16 18 24 41 44 37 59 50 17 11 5 2 8 8 9 6 8 8 18 37 14 17 12 11 9 5 9 8 12 5 9 8 11 5 7 10 12 18 22 26 26 29 32 34 36 40 41 39 40 39
58 48 51 47 43 51 30 23 32 59 17 15 10 7 7 5 5 6 6 7 7 29 51 55 17 8 12 6 6 10 6 8 4 5 12 6 12 0 6 12 16 17 19 20 21 23 27 29 29 30 32 33 31 28
44 47 49 47 35 30 37 29 23 23 14 12 10 7 9 8 10 9 11 16 23 45 61 30 17 12 5 8 4 9 6 7 12 10 6 14 7 0 8 11 15 16 18 19 21 22 22 22 23 23 23 22 21 16
37 20 47 39 35 29 24 16 31 26 13 12 22 4 10 5 4 13 19 10 20 39 46 19 7 7 4 9 7 11 15 12 8 5 16 10 2 5 9 9 12 14 15 16 16 16 16 15 14 13 12 9 7 4
34 25 37 25 28 30 14 23 16 19 14 13 8 21 13 13 13 9 13 13 15 14 6 7 9 11 6 7 3 7 11 7 20 20 10 5 2 4 5 5 6 7 8 9 10 9 9 7 6 5 2 5 6 10
22 27 25 20 17 16 37 24 16 16 13 18 7 12 14 17 9 13 11 13 13 9 7 6 11 6 10 11 6 5 10 17 16 14 9 3 1 2 1 4 5 5 5 5 4 3 6 7 8 10 13 14 13 16
21 22 16 14 18 13 12 16 16 10 14 9 10 14 14 13 25 19 13 14 19 16 11 4 9 5 5 6 5 12 23 15 13 12 7 6 4 4 3 4 6 6 5 5 5 4 4 5 8 11 12 14 16 20
10 10 11 10 12 10 12 15 13 16 5 7 12 13 10 12 15 21 22 17 14 8 12 8 5 4 7 10 14 21 19 17 17 16 6 4 5 5 5 4 6 7 7 7 8 11 11 13 13 14 15 16 17 19
5 3 3 6 14 23 16 12 16 12 10 11 10 8 8 13 15 20 20 19 12 12 5 10 13 14 15 17 18 17 18 18 18 8 8 6 5 4 6 7 7 7 8 9 9 10 11 12 14 14 15 15 15 14
2 4 8 15 14 13 18 19 12 9 9 9 7 7 8 5 8 13 15 19 11 9 8 8 12 14 16 16 16 14 15 17 13 9 8 10 11 11 10 11 10 10 11 12 12 12 12 14 13 12 11 10 8 5
10 8 13 15 11 14 7 11 8 10 6 3 4 6 6 6 13 13 11 10 7 8 6 8 11 13 13 14 13 13 13 12 10 9 11 11 11 12 12 13 13 12 12 12 12 11 11 10 9 7 5 4 3 4
12 13 19 17 22 6 7 13 9 8 7 7 6 6 7 8 12 8 4 3 3 3 5 7 10 11 10 10 10 11 12 12 10 12 13 13 13 14 14 14 14 12 12 12 11 10 9 7 6 6 7 9 10 12
10 23 17 14 19 11 12 10 10 9 7 6 6 6 6 9 5 4 1 1 1 2 3 5 8 7 7 7 7 10 12 14 15 13 14 14 14 16 16 16 15 14 13 12 11 9 8 8 9 11 12 15 17 19
17 20 12 10 10 8 5 6 7 3 4 6 2 6 6 4 4 6 4 3 3 2 4 6 9 9 9 7 8 10 13 14 15 14 15 16 17 16 14 14 13 12 11 10 10 11 11 12 14 16 19 22 25 30
11 9 13 16 5 5 9 9 5 7 6 3 4 6 4 3 6 5 3 5 5 6 7 8 9 9 9 8 10 11 13 14 13 12 14 15 15 14 14 14 13 11 11 11 13 13 15 17 20 23 26 27 30 36
10 12 7 15 12 12 7 4 5 3 2 3 2 1 9 9 7 3 8 7 9 10 10 10 10 9 10 11 12 13 14 15 14 13 14 14 14 14 14 13 13 13 14 14 16 19 21 24 28 30 33 34 31 33
11 8 5 9 7 9 8 4 4 1 2 1 3 3 5 6 7 6 9 11 12 12 13 13 14 14 14 14 15 15 14 14 14 15 13 10 11 13 14 15 17 18 18 19 23 25 27 29 31 34 35 37 36 35
9 9 5 4 6 4 3 5 4 3 4 5 6 6 8 8 7 7 11 13 13 12 13 14 14 14 15 15 15 14 13 13 13 14 13 13 14 14 15 15 18 21 22 23 25 27 31 33 35 39 43 44 45 48
4 3 5 5 3 2 6 7 4 4 4 4 6 8 9 9 6 7 11 13 15 15 15 15 15 15 14 13 12 12 12 14 15 17 18 18 20 20 21 22 23 25 26 28 29 31 34 36 39 42 44 47 47 51
5 6 5 4 2 1 6 7 4 4 4 4 4 6 7 7 6 5 7 16 17 17 15 16 15 11 12 14 15 15 16 17 16 15 15 17 19 22 24 25 27 29 31 32 34 36 39 43 46 49 53 55 57 59
4 5 5 4 2 1 5 11 3 6 6 5 5 5 5 6 9 5 5 12 14 14 15 15 16 17 16 16 16 16 17 18 19 19 20 22 22 25 27 28 30 33 35 37 39 42 45 49 54 57 61 65 68 69
Wind_Direction_850mb
268 262 262 260 261 261 260 258 254 251 246 242 241 243 237 231 219 224 224 220 212 225 225 210 210 216 193 188 163 149 111 159 165 188 177 198 179 208 184 219 169 172 178 193 216 233 252 196 131 175 227 304 303 300
263 263 261 262 260 261 260 256 249 250 248 243 242 241 240 244 226 223 225 221 212 214 225 219 217 221 212 202 190 166 176 149 178 178 194 153 237 182 173 242 193 244 211 188 176 208 206 162 317 308 316 303 306 293
264 261 259 257 258 259 260 256 248 249 248 246 242 240 239 237 244 224 217 218 203 212 220 200 213 216 217 219 215 200 219 206 189 213 102 68 241 93 188 228 254 252 220 224 253 259 265 278 288 295 307 295 290 279
260 260 259 255 255 258 257 249 249 249 247 244 243 244 238 238 239 242 235 206 197 192 208 217 216 213 215 212 210 213 215 206 210 203 165 172 176 214 258 243 161 220 1 254 267 271 278 274 282 292 302 298 275 288
253 256 252 251 254 257 253 248 247 245 245 243 245 243 239 237 239 249 240 221 218 187 162 156 198 210 207 206 203 205 200 191 170 149 148 212 206 256 245 344 262 249 249 257 265 275 288 287 287 288 289 286 285 289
248 247 249 250 253 257 254 249 249 251 245 249 249 243 238 231 229 244 253 209 201 205 170 168 167 189 191 203 206 205 211 214 204 198 194 218 215 208 212 228 252 257 258 257 265 268 269 271 279 280 285 287 291 285
248 241 248 251 253 255 255 251 251 251 251 252 251 240 232 227 220 216 243 194 201 198 180 129 131 159 188 189 187 189 193 198 197 190 210 224 206 205 186 251 261 270 271 275 275 284 272 267 274 283 290 296 289 285
248 243 248 252 255 256 256 253 252 250 249 247 243 230 226 218 221 229 232 191 186 181 177 144 103 139 163 157 152 175 170 175 189 196 211 195 231 206 235 246 263 275 272 266 264 262 270 271 271 281 286 288 285 284
269 258 253 255 258 259 262 259 252 247 239 231 225 219 212 208 205 215 215 163 175 175 158 133 152 152 155 144 123 128 152 151 176 198 196 162 221 215 226 259 253 281 310 291 283 298 303 299 292 291 293 295 292 292
276 267 263 262 264 264 266 259 249 235 218 213 196 204 200 194 202 200 156 164 170 178 151 135 126 146 165 142 125 132 161 183 174 214 170 184 240 240 246 259 270 267 267 277 290 284 290 289 292 290 294 298 297 297
280 262 257 266 268 270 268 270 247 229 188 187 201 170 171 174 160 182 144 160 118 140 172 140 145 134 161 134 135 149 147 163 158 245 164 228 255 171 226 241 256 269 277 280 281 283 286 285 291 296 296 294 291 289
53 62 67 59 286 289 292 170 163 152 167 177 153 140 147 125 130 143 114 112 129 135 134 135 130 119 128 140 113 154 149 109 205 142 122 250 222 166 199 246 274 283 284 282 282 284 283 284 287 288 290 290 290 285
46 47 44 47 38 107 46 96 134 150 149 134 154 99 164 46 117 136 117 102 121 156 157 135 131 122 116 103 108 148 146 192 118 111 206 219 132 176 309 308 301 303 300 297 295 291 292 291 289 290 291 289 288 286
45 51 50 45 47 33 81 113 100 143 118 53 39 76 50 85 62 84 113 120 117 138 139 138 115 112 125 131 138 125 190 93 142 180 223 192 172 339 334 335 332 327 324 321 314 307 302 299 296 294 294 294 293 290
13 31 40 46 56 50 40 28 45 101 57 61 38 45 60 119 37 62 52 107 114 139 133 114 80 106 109 120 137 105 112 210 191 216 194 154 151 56 308 313 319 322 326 323 319 317 311 307 304 301 301 300 298 293
358 341 29 28 35 42 36 52 63 60 69 53 38 83 340 81 61 49 48 75 107 122 124 101 109 112 140 129 128 189 139 202 223 150 136 159 192 296 302 326 335 331 330 327 324 322 319 315 309 308 312 308 292 257
354 13 2 23 31 29 34 60 53 52 48 43 43 38 19 52 44 26 43 33 84 79 93 100 88 189 96 87 152 165 192 181 142 136 161 168 197 271 291 333 2 353 346 339 331 331 340 350 348 341 359 72 120 139
353 351 352 355 12 35 52 44 68 67 66 31 51 10 43 57 62 49 61 67 56 48 13 138 116 97 146 148 235 167 116 128 135 145 148 131 192 250 12 39 43 31 28 29 13 44 87 85 88 83 95 103 115 121
349 356 358 6 15 25 56 44 43 85 53 59 53 38 66 70 64 69 81 82 86 91 107 65 83 119 133 48 84 103 134 134 149 160 134 116 144 162 128 90 74 70 77 88 96 125 138 124 134 121 116 123 126 121
321 344 20 3 8 51 71 45 55 74 64 63 45 25 46 48 43 46 49 63 63 35 45 44 84 93 93 125 126 143 147 142 139 129 129 140 158 155 140 125 123 118 118 120 131 132 127 124 126 123 127 130 129 128
305 307 81 79 48 57 74 54 63 74 91 74 74 34 48 44 36 27 19 21 50 32 66 64 96 104 124 131 138 145 146 151 146 157 176 195 181 183 155 147 148 150 151 149 154 148 143 135 133 132 137 140 136 134
101 140 96 66 68 65 68 49 78 88 84 92 69 60 52 45 31 20 10 39 59 41 70 113 129 133 141 146 148 150 153 161 171 186 213 202 193 186 183 180 173 172 170 167 162 162 159 155 149 144 142 139 136 133
112 94 57 47 80 52 35 53 72 39 74 23 52 52 27 37 11 22 61 47 57 55 100 140 145 145 150 150 154 157 163 178 191 204 197 197 195 192 189 188 185 183 182 178 174 170 166 162 164 169 172 199 245 276
86 54 33 37 36 53 36 35 48 54 58 36 49 48 8 1 12 45 96 96 63 103 158 161 148 140 149 160 171 174 188 200 201 197 194 194 194 191 182 181 183 182 181 178 175 175 177 189 206 234 258 273 288 302
86 13 19 12 22 35 37 18 2 44 57 0 64 20 340 356 53 42 221 227 236 203 164 150 157 159 169 174 183 189 188 196 194 192 193 189 185 187 181 180 180 180 181 190 195 204 221 243 263 275 286 295 299 300
68 16 43 8 10 59 351 61 32 42 38 44 9 325 350 70 69 249 231 224 227 190 172 181 187 191 193 193 191 183 182 186 190 183 185 186 182 185 187 188 190 194 202 215 234 248 263 276 287 294 295 299 300 299
62 355 33 34 45 80 62 56 49 67 62 76 314 0 54 89 258 252 247 216 205 186 181 179 180 189 180 180 178 177 179 182 184 181 180 184 192 197 202 209 214 222 234 247 262 273 283 289 292 294 295 297 301 302
74 38 73 4 45 40 110 55 62 99 220 352 336 125 165 192 239 241 220 202 195 186 181 180 178 177 166 161 165 170 174 175 177 179 181 193 203 210 220 233 245 256 264 270 277 282 288 292 294 296 298 300 300 298
51 28 37 23 46 48 48 120 214 240 264 224 137 265 263 256 269 262 216 197 191 187 181 175 171 167 166 168 171 175 179 187 190 191 199 215 228 240 247 254 262 268 278 279 282 287 291 293 294 298 300 300 300 301
27 23 76 58 76 350 338 346 343 306 253 253 269 282 280 288 307 231 208 200 195 189 187 184 183 185 187 188 190 196 200 208 217 228 239 250 262 265 267 266 270 276 280 284 287 289 292 296 298 297 300 304 308 307
21 37 79 59 110 49 346 350 350 328 291 284 279 266 284 304 292 240 217 203 200 201 201 201 200 202 209 216 223 228 233 241 243 247 252 259 266 271 273 275 278 283 286 287 290 292 294 294 297 300 301 302 302 301
49 50 100 82 295 309 334 339 301 298 290 284 286 286 294 295 280 247 225 213 212 210 207 212 213 214 227 235 243 247 251 254 258 262 267 270 272 273 276 279 281 284 287 291 294 297 300 303 304 303 302 301 302 302
74 60 66 96 72 343 335 351 349 309 255 263 257 273 269 270 255 257 244 215 208 208 217 222 225 240 250 252 254 256 258 261 266 270 272 273 275 275 278 281 284 288 292 296 298 300 300 300 301 302 303 303 303 303